Location: State Camp
(41.2367°N, 77.7828°W)
Time: 18:02:38
(UTC-04:00)

HST - Visible Passes

Search period start: 25 October 2014 00:00
Search period end: 03 November 2014 23:00
Orbit: 546 x 550 km, 28.5° (Epoch: 24 October)

Date Brightness Start Highest point End Pass type
(mag) Time Alt. Az. Time Alt. Az. Time Alt. Az.
27 Oct 3.5 20:36:36 10° SSW 20:37:03 11° SSW 20:37:03 11° SSW visible
28 Oct 3.3 18:49:59 10° S 18:50:45 10° SSE 18:51:32 10° SSE visible
28 Oct 3.3 20:29:07 10° SSW 20:30:11 13° SSW 20:30:11 13° SSW visible
29 Oct 3.3 18:41:44 10° SSW 18:43:18 12° S 18:44:51 10° SSE visible
29 Oct 3.2 20:21:44 10° SW 20:23:18 14° SSW 20:23:18 14° SSW visible
30 Oct 3.2 18:33:54 10° SSW 18:35:50 13° S 18:37:46 10° SE visible
30 Oct 3.2 20:14:26 10° SW 20:16:26 13° S 20:16:26 13° S visible
31 Oct 3.3 20:07:15 10° SSW 20:09:00 12° S 20:09:34 12° S visible
01 Nov 3.4 20:00:19 10° SSW 20:01:31 11° SSW 20:02:44 10° S visible
